FLOCK 3P-22 (41958 NORAD) Tracking and Keplerian Element Data

This shows tracking and keplerian element data for the satellite.

Feedback or suggestion? Click here.




ElementValue
Catalog41958
NameFLOCK 3P-22
Epoch Orbit17716
Epoch Day115.00797847
Epoch Year2020
RAAN184.1436
Inclination97.3686
Eccentricity0.0009617
Argument of Perigee118.047
Mean Anonmoly242.1743
Mean Motion15.28032695
Decay Rate3.37E-05
L11 41958U 17008L 20115.00797847 .00003370 00000-0 12583-3 0 9999
L22 41958 97.3686 184.1436 0009617 118.0470 242.1743 15.28032695177165



Live tracking and technical data element details for FLOCK 3P-22 (NORAD 41958). FLOCK 3P-22 can be tracked NOW for your location showing map with azimuth and elevation plus other details from your city location.







IsCatalogInMostPopularTable: catalog: 41958, numindb: 490
Update: records affected: 1



GetName: 41958 FLOCK 3P-22

Hit Count: updated at: Thu, 15 May 2025 10:39:17 GMT